[[{"header":{"parameterUnit":"m.s-1","parameterCategory":1,"la1":30.2991,"la2":30.254,"lo1":-89.0895,"lo2":-89.0444,"dy":0.0017,"dx":0.0017,"nx":28,"ny":28,"refTime":"2023-09-09T09:00:00:Z","depth":0,"parameterNumber":2,"parameterNumberName":"U-component_of_WINDS"},"data":[0,0,0,0,0,0,0,0,0,0,0,0,0,0,0,0,0,0,0,0,0,0,0,0,0,0,0,0,0,0,0,0,0,0,0,0,0,0,0,0,0,0,0,0,0,0,0,0,0,0,0,0,0,0,0,0,0,0,-1.2805,-1.2805,0,-1.278,-1.278,-1.278,-1.268,-1.2678,-1.2676,-1.2674,-1.2651,-1.2653,-1.2654,0,0,0,0,0,0,0,0,0,0,0,0,0,-1.2769,-1.277,-1.2805,-1.2805,-1.2804,-1.278,-1.278,-1.2779,-1.2681,-1.2678,-1.2675,-1.2673,-1.2651,-1.2653,-1.2654,0,0,0,0,0,0,0,0,0,0,0,0,0,-1.2769,-1.2771,-1.2805,-1.2752,-1.2747,-1.278,-1.278,-1.2779,-1.2681,-1.2678,-1.2675,-1.2671,-1.265,-1.2652,-1.2655,-1.2738,0,0,-1.2662,-1.2663,0,0,0,0,0,0,0,0,-1.2769,-1.277,-1.276,-1.2756,-1.275,-1.273,-1.2759,-1.2766,-1.2682,-1.2707,-1.2674,-1.267,-1.268,-1.268,-1.2683,-1.2737,-1.2736,-1.2662,-1.2663,-1.2664,-1.2665,0,0,0,0,0,0,0,-1.2769,-1.2771,-1.2795,-1.276,-1.2754,-1.273,-1.2726,-1.276,-1.2713,-1.2704,-1.2697,-1.2695,-1.2677,-1.2681,-1.2682,-1.2735,-1.2662,-1.2664,-1.2665,-1.2666,-1.2854,-1.2858,0,0,0,0,0,0,-1.2776,-1.2771,-1.2796,-1.2794,-1.2751,-1.2734,-1.2729,-1.274,-1.2712,-1.2705,-1.2698,-1.2691,-1.2679,-1.2679,-1.2681,-1.2775,-1.2664,-1.2666,-1.2668,-1.2851,-1.2855,-1.2859,0,0,0,0,0,0,-1.2776,-1.2779,-1.2797,-1.2781,-1.2781,-1.2738,-1.2751,-1.2741,-1.2745,-1.2708,-1.2699,-1.2711,-1.2676,-1.2677,-1.2724,-1.2773,-1.2667,-1.267,-1.2846,-1.2852,-1.2857,-1.2966,0,0,0,0,0,0,-1.2775,-1.278,-1.2811,-1.2782,-1.2783,-1.2841,-1.2754,-1.2743,-1.2749,-1.2739,-1.2717,-1.271,-1.2673,-1.2721,-1.2726,-1.2774,-1.2671,-1.2842,-1.2849,-1.2855,-1.2957,-1.2974,-1.2988,0,0,0,0,0,-1.2774,-1.2843,-1.2813,-1.2816,-1.282,-1.2844,-1.2844,-1.2799,-1.2753,-1.2784,-1.276,-1.2711,-1.2767,-1.2726,-1.2731,-1.2781,-1.2839,-1.2847,-1.2855,-1.295,-1.2971,-1.2988,0,0,0,0,0,0,-1.288,-1.2838,-1.2804,-1.2866,-1.2859,-1.2827,-1.2864,-1.2822,-1.2829,-1.2819,-1.2764,-1.276,-1.2814,-1.2802,-1.2758,-1.2859,-1.2794,-1.2804,-1.2865,-1.2884,-1.2899,-1.2901,-1.2673,0,0,0,0,0,-1.291,-1.2932,-1.2895,-1.2953,-1.2951,-1.2909,-1.2917,-1.2883,-1.2874,-1.2871,-1.285,-1.2844,-1.2859,-1.2871,-1.2883,-1.2955,-1.2948,-1.2991,-1.3007,-1.302,-1.3029,-1.3065,-1.3083,-1.2886,-1.2886,-1.2886,0,0,-1.2974,-1.2953,-1.2971,-1.2973,-1.2964,-1.2988,-1.2907,-1.2936,-1.2954,-1.2875,-1.2917,-1.2902,-1.2891,-1.295,-1.2975,-1.2942,-1.3082,-1.303,-1.3041,-1.3043,-1.3075,-1.3094,-1.311,-1.2891,-1.289,-1.2889,0,0,-1.3101,-1.3088,-1.3134,-1.3126,-1.3112,-1.3083,-1.3094,-1.3068,-1.3054,-1.3095,-1.3037,-1.3057,-1.3086,-1.308,-1.3081,-1.3204,-1.316,-1.321,-1.3291,-1.3327,-1.3342,-1.3356,-1.34,-1.3416,-1.3219,-1.3219,-1.322,0,-1.3182,-1.3215,-1.3164,-1.3196,-1.3199,-1.3128,-1.3174,-1.3169,-1.3161,-1.3164,-1.3127,-1.316,-1.3148,-1.3204,-1.3234,-1.3237,-1.3248,-1.3213,-1.3344,-1.3357,-1.3369,-1.341,-1.3427,-1.3226,-1.3225,-1.3224,-1.3224,0,-1.3315,-1.3339,-1.3378,-1.3369,-1.3376,-1.3416,-1.3372,-1.3385,-1.335,-1.3325,-1.3367,-1.335,-1.3357,-1.3368,-1.3335,-1.3419,-1.3399,-1.3354,-1.3287,-1.3395,-1.3432,-1.3448,-1.3235,-1.3232,-1.323,-1.3229,0,0,-1.351,-1.3471,-1.3486,-1.3481,-1.3459,-1.3477,-1.3513,-1.3519,-1.3531,-1.3528,-1.3557,-1.3582,-1.3539,-1.354,-1.3505,-1.3537,-1.3635,-1.3487,-1.3486,-1.3515,-1.3727,-1.3761,-1.378,-1.3605,-1.3608,-1.361,-1.3727,0,-1.3631,-1.3689,-1.3643,-1.3711,-1.3732,-1.3663,-1.3695,-1.3685,-1.3663,-1.3678,-1.3653,-1.3671,-1.3614,-1.3614,-1.3642,-1.3617,-1.3677,-1.3608,-1.3632,-1.3633,-1.3637,-1.38,-1.3836,-1.3948,-1.3742,-1.3744,-1.3746,0,-1.378,-1.3781,-1.385,-1.3822,-1.383,-1.3859,-1.3859,-1.3874,-1.3862,-1.3843,-1.3844,-1.38,-1.3834,-1.3769,-1.3814,-1.3768,-1.3775,-1.3765,-1.3768,-1.3769,-1.3697,-1.3805,-1.3983,-1.4,-1.3769,-1.3767,-1.3765,0,-1.3915,-1.3934,-1.3977,-1.3975,-1.3944,-1.3965,-1.3954,-1.3938,-1.3944,-1.3945,-1.3948,-1.3953,-1.3957,-1.3962,-1.3921,-1.3877,-1.3972,-1.3903,-1.3958,-1.3959,-1.3981,-1.398,-1.4163,-1.3986,-1.3986,-1.3985,-1.3985,0,-1.4055,-1.41,-1.4037,-1.4063,-1.4111,-1.4058,-1.4107,-1.4088,-1.4075,-1.4097,-1.4038,-1.406,-1.4005,-1.4021,-1.3989,-1.4032,-1.4034,-1.402,-1.4011,-1.4025,-1.4027,-1.4029,-1.402,-1.399,-1.3989,-1.3988,-1.3987,0,-1.4215,-1.4174,-1.4216,-1.4182,-1.4175,-1.4212,-1.4183,-1.4207,-1.4179,-1.4208,-1.4212,-1.417,-1.4186,-1.4145,-1.4156,-1.4134,-1.4195,-1.4174,-1.4199,-1.4193,-1.4249,-1.4244,-1.4439,-1.4462,-1.4271,-1.4273,-1.4275,0,-1.4307,-1.4339,-1.4308,-1.4318,-1.4309,-1.4326,-1.4331,-1.428,-1.4288,-1.4275,-1.43,-1.4311,-1.4317,-1.4346,-1.4317,-1.4324,-1.4303,-1.4371,-1.4304,-1.4317,-1.4303,-1.4302,-1.4305,-1.4385,-1.4387,-1.4389,-1.4391,0,-1.4475,-1.4452,-1.4461,-1.4463,-1.447,-1.447,-1.4465,-1.4477,-1.4422,-1.4434,-1.4448,-1.4453,-1.4463,-1.4474,-1.4475,-1.4463,-1.4419,-1.4412,-1.4424,-1.4439,-1.4453,-1.4446,-1.4237,-1.4408,-1.4406,-1.4405,-1.4404,-1.4403,-1.4603,-1.4628,-1.461,-1.4621,-1.4612,-1.4608,-1.4628,-1.4603,-1.4614,-1.4617,-1.4586,-1.4607,-1.4593,-1.4589,-1.4582,-1.4598,-1.4567,-1.4586,-1.4591,-1.4596,-1.4606,-1.445,-1.4598,-1.4598,-1.4597,-1.4597,-1.4596,0,-1.4767,-1.4752,-1.4763,-1.4757,-1.4766,-1.4721,-1.4713,-1.4724,-1.4743,-1.4733,-1.4739,-1.4756,-1.4766,-1.4738,-1.4744,-1.4762,-1.4742,-1.4766,-1.4764,-1.4762,-1.4633,-1.4621,-1.4782,-1.4782,-1.4782,-1.4782,-1.4782,-1.4782,-1.4854,-1.4894,-1.4869,-1.4904,-1.4887,-1.4907,-1.4906,-1.4903,-1.4894,-1.4915,-1.4923,-1.4903,-1.4885,-1.4889,-1.4897,-1.4888,-1.4893,-1.4925,-1.4909,-1.4789,-1.4771,-1.4754,-1.4742,-1.4926,-1.4926,-1.5036,-1.5037,-1.5038]},{"header":{"parameterUnit":"m.s-1","parameterCategory":1,"la1":30.2991,"la2":30.254,"lo1":-89.0895,"lo2":-89.0444,"dy":0.0017,"dx":0.0017,"nx":28,"ny":28,"refTime":"2023-09-09T09:00:00:Z","depth":0,"parameterNumber":3,"parameterNumberName":"V-component_of_WINDS"},"data":[0,0,0,0,0,0,0,0,0,0,0,0,0,0,0,0,0,0,0,0,0,0,0,0,0,0,0,0,0,0,0,0,0,0,0,0,0,0,0,0,0,0,0,0,0,0,0,0,0,0,0,0,0,0,0,0,0,0,-2.1641,-2.1641,0,-2.1623,-2.1622,-2.1622,-2.1575,-2.1574,-2.1573,-2.1572,-2.1554,-2.1554,-2.1554,0,0,0,0,0,0,0,0,0,0,0,0,0,-2.1637,-2.1637,-2.1641,-2.1641,-2.1641,-2.1623,-2.1622,-2.1622,-2.1575,-2.1574,-2.1572,-2.1571,-2.1553,-2.1554,-2.1555,0,0,0,0,0,0,0,0,0,0,0,0,0,-2.1631,-2.1638,-2.1642,-2.1615,-2.1613,-2.1623,-2.1622,-2.1622,-2.1575,-2.1574,-2.1572,-2.1571,-2.1553,-2.1554,-2.1555,-2.1589,0,0,-2.1557,-2.1557,0,0,0,0,0,0,0,0,-2.1631,-2.1631,-2.1619,-2.1617,-2.1614,-2.1599,-2.1614,-2.1611,-2.1575,-2.1589,-2.1572,-2.157,-2.157,-2.1569,-2.1569,-2.1588,-2.1587,-2.1557,-2.1557,-2.1557,-2.1558,0,0,0,0,0,0,0,-2.1632,-2.1632,-2.1634,-2.1619,-2.1616,-2.1604,-2.1602,-2.1613,-2.1589,-2.1588,-2.1585,-2.1583,-2.1568,-2.1569,-2.1568,-2.1587,-2.1557,-2.1557,-2.1558,-2.1558,-2.1633,-2.1634,0,0,0,0,0,0,-2.1636,-2.1632,-2.1635,-2.1633,-2.1619,-2.1606,-2.1603,-2.1606,-2.1588,-2.1584,-2.1584,-2.1581,-2.1568,-2.1568,-2.1568,-2.1606,-2.1557,-2.1558,-2.1558,-2.1631,-2.1633,-2.1635,0,0,0,0,0,0,-2.1636,-2.1636,-2.1635,-2.1632,-2.1631,-2.1607,-2.1611,-2.1606,-2.1606,-2.1585,-2.1581,-2.1589,-2.1567,-2.1567,-2.1584,-2.1605,-2.1558,-2.1559,-2.1629,-2.1632,-2.1634,-2.1683,0,0,0,0,0,0,-2.1636,-2.1637,-2.165,-2.1632,-2.1631,-2.1652,-2.1612,-2.1607,-2.1607,-2.1603,-2.1588,-2.1585,-2.1566,-2.1583,-2.1584,-2.1605,-2.156,-2.1627,-2.163,-2.1633,-2.168,-2.1687,-2.1694,0,0,0,0,0,-2.1636,-2.1665,-2.165,-2.1651,-2.1647,-2.1653,-2.1652,-2.163,-2.1609,-2.1622,-2.1608,-2.1585,-2.1602,-2.1585,-2.1586,-2.1607,-2.1626,-2.1629,-2.1633,-2.1677,-2.1686,-2.1693,0,0,0,0,0,0,-2.1686,-2.1662,-2.1646,-2.167,-2.1664,-2.1645,-2.166,-2.164,-2.164,-2.1636,-2.1608,-2.1605,-2.1626,-2.1618,-2.16,-2.1639,-2.161,-2.1614,-2.1643,-2.1652,-2.1658,-2.1659,-2.156,0,0,0,0,0,-2.1699,-2.1706,-2.1686,-2.1709,-2.1706,-2.1684,-2.1686,-2.1669,-2.1662,-2.1659,-2.1647,-2.1641,-2.1644,-2.1648,-2.165,-2.1679,-2.1675,-2.1694,-2.17,-2.1706,-2.171,-2.1723,-2.1731,-2.1646,-2.1646,-2.1646,0,0,-2.1728,-2.1716,-2.1722,-2.1719,-2.1712,-2.1719,-2.1682,-2.1692,-2.1698,-2.1661,-2.1676,-2.1667,-2.1658,-2.1681,-2.169,-2.1675,-2.1732,-2.1711,-2.1715,-2.1716,-2.1728,-2.1736,-2.1743,-2.1649,-2.1648,-2.1648,0,0,-2.1783,-2.1775,-2.1793,-2.1787,-2.1777,-2.1762,-2.1766,-2.175,-2.1743,-2.1757,-2.1729,-2.1735,-2.1743,-2.1738,-2.1736,-2.1789,-2.1768,-2.1791,-2.1826,-2.184,-2.1847,-2.1852,-2.1871,-2.1878,-2.1795,-2.1795,-2.1795,0,-2.182,-2.1831,-2.1805,-2.1817,-2.1816,-2.1782,-2.18,-2.1795,-2.1787,-2.1787,-2.177,-2.1778,-2.177,-2.1791,-2.1803,-2.1804,-2.1807,-2.1792,-2.1848,-2.1853,-2.1858,-2.1875,-2.1882,-2.1797,-2.1797,-2.1797,-2.1797,0,-2.1876,-2.1884,-2.1899,-2.1891,-2.1892,-2.1907,-2.1884,-2.1888,-2.1871,-2.1857,-2.1872,-2.1861,-2.186,-2.1864,-2.1848,-2.1882,-2.1873,-2.1853,-2.1823,-2.187,-2.1885,-2.1892,-2.1802,-2.1801,-2.18,-2.1799,0,0,-2.1962,-2.1939,-2.1946,-2.1941,-2.1927,-2.1933,-2.1946,-2.1944,-2.1948,-2.1943,-2.1953,-2.196,-2.1941,-2.1939,-2.1922,-2.1934,-2.1975,-2.1911,-2.1911,-2.1923,-2.2012,-2.2027,-2.2035,-2.1961,-2.1962,-2.1963,-2.2012,0,-2.2014,-2.2035,-2.2012,-2.2037,-2.2044,-2.2011,-2.2022,-2.2015,-2.2003,-2.2007,-2.1993,-2.1998,-2.1973,-2.1971,-2.1982,-2.1968,-2.1993,-2.1964,-2.197,-2.1971,-2.1972,-2.2043,-2.2059,-2.2106,-2.2018,-2.2019,-2.202,0,-2.2077,-2.2074,-2.21,-2.2084,-2.2085,-2.2096,-2.2092,-2.2097,-2.2088,-2.2078,-2.2076,-2.2054,-2.2066,-2.2038,-2.2053,-2.2034,-2.2035,-2.2029,-2.203,-2.2029,-2.1998,-2.2043,-2.212,-2.2127,-2.2029,-2.2029,-2.2028,0,-2.2137,-2.214,-2.2155,-2.2152,-2.2134,-2.2142,-2.2134,-2.2124,-2.2124,-2.2121,-2.2121,-2.212,-2.212,-2.2119,-2.2098,-2.208,-2.2116,-2.2086,-2.2108,-2.2109,-2.2117,-2.2117,-2.2194,-2.2119,-2.2119,-2.2119,-2.2119,0,-2.2196,-2.2213,-2.2181,-2.2191,-2.2209,-2.2182,-2.2201,-2.219,-2.2181,-2.2188,-2.216,-2.2167,-2.214,-2.2144,-2.2128,-2.2143,-2.2143,-2.2135,-2.2131,-2.2137,-2.2138,-2.2137,-2.2133,-2.2121,-2.212,-2.212,-2.212,0,-2.2266,-2.2245,-2.226,-2.224,-2.2236,-2.225,-2.2234,-2.2242,-2.2227,-2.2236,-2.2237,-2.2215,-2.2218,-2.2197,-2.2198,-2.2187,-2.2209,-2.2199,-2.2212,-2.2209,-2.2232,-2.2229,-2.2311,-2.232,-2.224,-2.224,-2.2241,0,-2.2305,-2.2317,-2.2299,-2.2301,-2.2295,-2.2299,-2.2299,-2.2274,-2.2275,-2.2265,-2.2274,-2.2275,-2.2274,-2.2282,-2.2266,-2.2265,-2.2255,-2.2283,-2.2255,-2.2261,-2.2254,-2.2254,-2.2254,-2.2289,-2.229,-2.2291,-2.2292,0,-2.2376,-2.2365,-2.2366,-2.2363,-2.2363,-2.236,-2.2355,-2.2358,-2.2331,-2.2334,-2.2336,-2.2336,-2.2335,-2.2336,-2.2333,-2.2325,-2.2304,-2.2301,-2.2306,-2.2312,-2.2319,-2.2315,-2.2227,-2.2299,-2.2298,-2.2298,-2.2297,-2.2297,-2.2431,-2.244,-2.2428,-2.243,-2.2423,-2.2418,-2.2425,-2.2411,-2.2412,-2.2409,-2.2395,-2.24,-2.239,-2.2383,-2.2377,-2.2381,-2.2368,-2.2375,-2.2377,-2.2379,-2.2382,-2.2319,-2.2381,-2.238,-2.238,-2.238,-2.238,0,-2.25,-2.2491,-2.2493,-2.2486,-2.2487,-2.2466,-2.2459,-2.2461,-2.2466,-2.2459,-2.2458,-2.2461,-2.2462,-2.2446,-2.2445,-2.2451,-2.2441,-2.2451,-2.245,-2.2449,-2.2395,-2.2391,-2.2459,-2.2459,-2.2459,-2.2459,-2.2459,-2.2459,-2.2537,-2.255,-2.2537,-2.2547,-2.2537,-2.2542,-2.2539,-2.2535,-2.2529,-2.2533,-2.2533,-2.2522,-2.2511,-2.2509,-2.2509,-2.2504,-2.2505,-2.2518,-2.251,-2.246,-2.2453,-2.2445,-2.2441,-2.2519,-2.2519,-2.2563,-2.2564,-2.2564]}]]